Preview of NWS' New Version of Forecast
This preview is not operational and should not be used for support decisions.

Regional Weather Roundup (RWR)

Issued by National Weather Service (NWS)

                            
000
ASUS45 KBOU 200810
RWRCO 

WEATHER ROUNDUP FOR COLORADO
NATIONAL WEATHER SERVICE DENVER/BOULDER CO
100 AM MST WED FEB 20 2019

NOTE: "FAIR" INDICATES FEW OR NO CLOUDS BELOW 12000 FEET WITH NO
SIGNIFICANT WEATHER AND/OR OBSTRUCTIONS TO VISIBILITY.

COZ001>005-013-030-031-200900-
...NORTHWEST COLORADO...
  
CITY           SKY/WX    TMP DP  RH WIND       PRES   REMARKS
CRAIG          LGT SNOW   5   1  83 CALM      29.73F VSB 1            
HAYDEN         FLURRIES   3   0  85 E3        29.70F                  
MEEKER         FLURRIES   6   0  76 NE5       29.73S WCI  -3          
RANGELY        FAIR       5   3  90 CALM      29.79F                  
RABBIT EARS PA LGT SNOW N/A N/A N/A MISG      29.44F                  
STEAMBOAT SPGS CLOUDY     1  -1  88 CALM      29.67F                  
WALDEN         CLOUDY    -6 -13  71 SE6       29.57F WCI -18          
$$

COZ006>008-011-200900-
...WEST CENTRAL VALLEYS...
  
CITY           SKY/WX    TMP DP  RH WIND       PRES   REMARKS
GRAND JUNCTION HVY SNOW  19  17  92 NW9       29.81R VSB 1/4 WCI   8  
MONTROSE       CLOUDY    20   9  62 SE7       29.79F WCI  11          
EAGLE          CLOUDY     3   0  87 E5        29.72F WCI  -6          
RIFLE          LGT SNOW  17  11  77 E3        29.76S                  
DELTA          FAIR      24  15  70 W12       29.79S WCI  12          
NUCLA          CLOUDY    19  12  73 S6        29.81S WCI  11          
$$

COZ017>023-064>068-200900-
...SOUTHWEST COLORADO...
  
CITY           SKY/WX    TMP DP  RH WIND       PRES   REMARKS
DURANGO        FAIR       1  -4  79 N5        29.75R WCI  -9          
CORTEZ         LGT SNOW  15  11  83 NE5       29.81S FOG     WCI   8  
PAGOSA SPRINGS FLURRIES  -1  -5  82 CALM      29.70R                  
TELLURIDE      FLURRIES   5   1  85 SE3       29.66F                  
WOLF CREEK PAS CLOUDY    -6  -9  84 S22G29    29.50F WCI -31          
$$

COZ009-010-012-014-032>034-037-058>063-200900-
...CENTRAL COLORADO...
  
CITY           SKY/WX    TMP DP  RH WIND       PRES   REMARKS
ASPEN          LGT SNOW  10   5  80 CALM      29.61F                  
BUENA VISTA    CLOUDY     8  -5  56 NW13      29.56F WCI  -8          
COPPER MTN     CLOUDY    -4  -9  77 W15G22    29.37F HAZE    WCI -25  
BERTHOUD PASS  CLOUDY   -13 -24  58 NW37G46   29.25F WCI -46          
COTTONWOOD PAS MOCLDY     9  -8  47 W14G32    29.46F WCI  -8          
GUNNISON       FAIR      -5 -11  75 N5        29.66S WCI -16          
GRANBY         PTSUNNY    1  -4  79 S5        29.59F WCI  -9          
KREMMLING      CLOUDY    -4  -8  84 N5        29.65F WCI -15          
LEADVILLE      CLOUDY    -4  -9  79 N3        29.48F HAZE             
MONARCH PASS   CLOUDY    -6  -9  84 W43       29.48F WCI -38          
SALIDA         FAIR      13  -1  51 W12       29.67S WCI   0          
SUNLIGHT       LGT SNOW N/A N/A N/A SW10G22   29.53F VSB 1            
WILKERSON PASS LGT SNOW N/A N/A N/A W10G16    29.40F                  
$$

COZ069>075-200900-
...SAN LUIS VALLEY/SANGRE DE CRISTO MOUNTAINS...
  
CITY           SKY/WX    TMP DP  RH WIND       PRES   REMARKS
ALAMOSA        MOCLDY     2  -2  83 SE3       29.63S                  
DEL NORTE      FAIR       6  -5  60 W7        29.63R WCI  -6          
LA VETA PASS   NOT AVBL                                               
SAGUACHE       FAIR       7   0  72 CALM      29.63R                  
$$

COZ035-036-038>040-200900-
...NORTHERN COLORADO FRONT RANGE...
  
CITY           SKY/WX    TMP DP  RH WIND       PRES   REMARKS
DENVER INTL AP FAIR      12   9  87 W7        29.62F WCI   1          
AURORA         PTCLDY    11  11  98 SW6       29.61F WCI   2          
FRONT RANGE AP NOT AVBL                                               
ERIE MUNI ARPT FAIR      10   7  89 CALM      29.69F                  
BOULDER MUN AP FAIR      14   9  79 S3        29.62F                  
CENTENNIAL     FAIR       9   6  88 S7        29.60F WCI  -2          
BROOMFIELD     FAIR      14  12  92 CALM      29.61F                  
FORT COLLINS   FOG       12   9  87 CALM      29.64F VSB 1/4          
LONGMONT       FAIR      11   6  81 CALM      29.66F HAZE             
$$

COZ041-046-047-076>085-087-088-200900-
...PIKES PEAK/PALMER DIVIDE AND SOUTHERN FOOTHILLS...
  
CITY           SKY/WX    TMP DP  RH WIND       PRES   REMARKS
COLO. SPRINGS  FAIR       7   5  91 N3        29.61F FOG              
A. F. ACADEMY  FAIR      -3  -7  81 N8        29.57F WCI -18          
SCHRIEVER AFB  NOT AVBL                                               
CHEYENNE MTN   FAIR      11   9  94 CALM      29.51F                  
ELLICOTT         N/A    N/A N/A N/A NW3         N/A                   
FALCON         FAIR       5   0  78 NW6       29.58F WCI  -5          
FORT CARSON    FAIR      10   6  85 CALM      29.60F                  
LIMON          MOCLDY     0  -2  91 N6        29.62F WCI -12          
MONUMENT HILL  FAIR       1  -2  85 SW7       29.57S WCI -11          
CANON CITY     NOT AVBL                                               
WALSENBURG     NOT AVBL                                               
TRINIDAD       FAIR      12   9  87 SW7       29.65S WCI   1          
$$

COZ042>045-048>051-090-091-200900-
...NORTHEAST COLORADO...
  
CITY           SKY/WX    TMP DP  RH WIND       PRES   REMARKS
GREELEY ARPT   CLOUDY    12  10  92 CALM      29.67F FOG              
AKRON          FAIR       7   5  91 SW5       29.63F WCI  -2          
BURLINGTON     CLOUDY    12  10  92 W5        29.68F FOG     WCI   4  
WRAY           LGT SNOW  16  12  86 CALM      29.71F                  
YUMA           PTSUNNY   12  10  92 CALM      29.68F FOG              
STERLING       FAIR      10   9  92 W6        29.67F WCI   1          
HOLYOKE        FAIR      14  10  85 CALM      29.70F                  
FORT MORGAN      N/A      8   5  87 N8        29.66F WCI  -5          
$$

COZ086-089-092>099-200900-
...SOUTHEAST COLORADO...
  
CITY           SKY/WX    TMP DP  RH WIND       PRES   REMARKS
PUEBLO         MOCLDY    15  12  88 CALM      29.68F                  
LA JUNTA       FAIR      16  12  84 MISG      29.71F                  
LAMAR          LGT SNOW  20  17  88 MISG      29.68S FOG              
SPRINGFIELD      N/A     21  19  92 W14       29.65F WCI   8          
$$